FW7576 Weather Reports


Display with metric or nautical units.
time (UTC)temp
F
wind
direction
speed
MPH
gust
MPH
rain 1hr
in
rain 24hr
in
rain mn
in
humidity
%
barometer
mb
20260906213043 73 82 4.0 11.0 0.00 0.00 0.00 55 1020.6
20260906211539 74 51 4.0 9.0 0.00 0.00 0.00 58 1020.7
20260906210045 74 53 4.0 9.0 0.00 0.00 0.00 60 1020.7
20260906204601 74 62 2.0 6.0 0.00 0.00 0.00 61 1020.9
20260906203041 74 41 5.0 11.0 0.00 0.00 0.00 58 1020.8
20260906201559 75 65 3.0 8.0 0.00 0.00 0.00 61 1020.8
20260906200043 75 50 4.0 7.0 0.00 0.00 0.00 63 1020.8
20260906194542 75 53 3.0 7.0 0.00 0.00 0.00 65 1020.8
20260906193049 74 71 2.0 10.0 0.00 0.00 0.00 67 1020.9
20260906191545 75 81 3.0 10.0 0.00 0.00 0.00 65 1021.0
20260906190043 75 74 3.0 9.0 0.00 0.00 0.00 64 1020.9
20260906184548 75 68 6.0 12.0 0.00 0.00 0.00 65 1020.9
20260906183046 75 65 4.0 10.0 0.00 0.00 0.00 64 1021.0
20260906181545 75 51 5.0 10.0 0.00 0.00 0.00 64 1020.9
20260906180058 75 75 3.0 9.0 0.00 0.00 0.00 64 1020.9
20260906174541 75 115 4.0 10.0 0.00 0.00 0.00 64 1021.1
20260906173041 75 68 4.0 9.0 0.00 0.00 0.00 64 1021.1
20260906171543 74 114 5.0 10.0 0.00 0.00 0.00 66 1021.3
20260906170042 74 46 3.0 10.0 0.00 0.00 0.00 66 1021.2
20260906164549 74 72 3.0 9.0 0.00 0.00 0.00 66 1021.4
20260906163044 74 152 4.0 7.0 0.00 0.00 0.00 68 1021.6
20260906161547 73 89 5.0 14.0 0.00 0.00 0.00 70 1021.4
20260906160042 73 129 3.0 10.0 0.00 0.00 0.00 71 1021.3
20260906154554 74 132 4.0 7.0 0.00 0.00 0.00 71 1021.3
20260906153043 73 82 4.0 9.0 0.00 0.00 0.00 74 1021.3
20260906151542 73 85 4.0 8.0 0.00 0.00 0.00 73 1021.2
20260906150055 73 118 4.0 8.0 0.00 0.00 0.00 74 1021.1
20260906144543 73 82 3.0 8.0 0.00 0.00 0.00 73 1021.0
20260906143055 72 87 3.0 8.0 0.00 0.00 0.00 73 1020.8
20260906141557 72 132 3.0 6.0 0.00 0.00 0.00 73 1021.1
20260906140044 72 153 3.0 6.0 0.00 0.00 0.00 74 1021.0
20260906134542 71 70 3.0 7.0 0.00 0.00 0.00 76 1021.0
20260906133042 71 57 3.0 8.0 0.00 0.00 0.00 77 1020.9
20260906131547 71 83 0.0 6.0 0.00 0.00 0.00 81 1020.7
20260906130050 69 63 0.0 3.0 0.00 0.00 0.00 84 1020.4
20260906124542 68 0 0.0 0.0 0.00 0.00 0.00 87 1020.2
20260906123044 66 0 0.0 0.0 0.00 0.00 0.00 86 1020.2
20260906121545 64 0 0.0 0.0 0.00 0.00 0.00 86 1020.1
20260906120043 63 0 0.0 0.0 0.00 0.00 0.00 87 1019.8
20260906114556 63 0 0.0 0.0 0.00 0.00 0.00 87 1019.7
20260906113043 64 0 0.0 0.0 0.00 0.00 0.00 87 1019.5
20260906111549 64 0 0.0 0.0 0.00 0.00 0.00 88 1019.3
20260906110041 65 0 0.0 0.0 0.00 0.00 0.00 88 1019.2
20260906104547 65 0 0.0 0.0 0.00 0.00 0.00 87 1019.2
20260906103049 65 0 0.0 0.0 0.00 0.00 0.00 87 1019.2
20260906101542 65 0 0.0 0.0 0.00 0.00 0.00 88 1019.1
20260906100057 65 0 0.0 0.0 0.00 0.00 0.00 88 1019.1
20260906094551 65 0 0.0 0.0 0.00 0.00 0.00 88 1019.0
20260906093043 65 0 0.0 0.0 0.00 0.00 0.00 88 1018.9
20260906091543 65 0 0.0 0.0 0.00 0.00 0.00 88 1018.6
20260906090044 65 0 0.0 0.0 0.00 0.00 0.00 87 1018.9
20260906084547 65 0 0.0 0.0 0.00 0.00 0.00 87 1018.9
20260906083043 65 0 0.0 0.0 0.00 0.00 0.00 87 1018.8
20260906081543 65 0 0.0 0.0 0.00 0.00 0.00 87 1018.7
20260906080203 65 0 0.0 0.0 0.00 0.00 0.00 87 1018.8
20260906074551 65 0 0.0 0.0 0.00 0.00 0.00 87 1018.6
20260906073044 65 0 0.0 0.0 0.00 0.00 0.00 87 1018.5
20260906071543 65 0 0.0 0.0 0.00 0.00 0.00 87 1018.6
20260906070047 65 0 0.0 0.0 0.00 0.00 0.00 87 1018.6
20260906064543 65 0 0.0 0.0 0.00 0.00 0.00 87 1018.6
20260906063046 65 0 0.0 1.0 0.00 0.00 0.00 86 1018.8
20260906061542 65 0 0.0 0.0 0.00 0.00 0.00 86 1018.6
20260906060047 65 0 0.0 0.0 0.00 0.00 0.00 86 1018.6
20260906054600 65 0 0.0 0.0 0.00 0.00 0.00 87 1018.6
20260906053048 65 0 0.0 0.0 0.00 0.00 0.00 87 1018.6
20260906051544 65 0 0.0 1.0 0.00 0.00 0.00 87 1018.4
20260906050045 65 0 0.0 1.0 0.00 0.00 0.00 88 1018.3
20260906044549 66 0 0.0 1.0 0.00 0.00 0.00 88 1018.3
20260906043045 66 32 0.0 3.0 0.00 0.00 0.00 88 1018.1
20260906041542 66 0 0.0 3.0 0.00 0.00 0.00 88 1017.9
20260906034552 67 61 1.0 5.0 0.00 0.00 0.00 88 1018.0
20260906033045 67 50 1.0 7.0 0.00 0.00 0.00 88 1018.0
20260906031605 67 51 3.0 6.0 0.00 0.00 0.00 88 1018.0
20260906030050 68 62 2.0 5.0 0.00 0.00 0.00 87 1018.0
20260906024557 68 53 2.0 7.0 0.00 0.00 0.00 87 1017.9
20260906023045 68 48 3.0 8.0 0.00 0.00 0.00 86 1017.7
20260906021550 68 49 2.0 5.0 0.00 0.00 0.00 86 1017.7
20260906020047 68 16 3.0 8.0 0.00 0.00 0.00 86 1017.7
20260906014543 69 31 2.0 5.0 0.00 0.00 0.00 85 1017.9
20260906013041 69 34 1.0 5.0 0.00 0.00 0.00 85 1017.7
20260906011542 69 23 2.0 5.0 0.00 0.00 0.00 85 1017.7
20260906010052 69 36 2.0 6.0 0.00 0.00 0.00 84 1017.7
20260906004544 70 48 3.0 6.0 0.00 0.00 0.00 84 1017.5
20260906003045 70 37 4.0 8.0 0.00 0.00 0.00 85 1017.5
20260906001551 70 20 3.0 8.0 0.00 0.00 0.00 85 1017.5
20260906000055 70 21 3.0 8.0 0.00 0.00 0.00 86 1017.6
20260905234550 70 37 3.0 9.0 0.00 0.00 0.00 86 1017.6
20260905233042 70 339 3.0 8.0 0.00 0.00 0.00 87 1017.6
20260905231542 70 49 5.0 11.0 0.00 0.00 0.00 88 1017.6
20260905230047 70 18 5.0 10.0 0.00 0.00 0.00 87 1017.6
20260905224543 70 57 3.0 12.0 0.00 0.00 0.00 87 1017.7
20260905223042 71 28 5.0 10.0 0.00 0.00 0.00 86 1017.4
20260905221543 71 37 3.0 13.0 0.00 0.00 0.00 86 1017.2
20260905220045 71 39 4.0 10.0 0.00 0.00 0.00 86 1017.2
20260905214543 71 40 5.0 14.0 0.00 0.00 0.00 85 1017.0